Location: Montemarano
(40.9167°N, 15.0000°E)
Time: 11:55:18
(UTC+00:00)

Daily predictions for brighter satellites

Satellite Brightness Start Highest point End
(mag) Time Altitude Azimuth Time Altitude Azimuth Time Altitude Azimuth
Cosmos 783 Rocket 4.5 18:42:39 10° SSW 18:47:48 77° ESE 18:53:01 10° NNE
Cosmos 1437 2.2 18:49:04 10° N 18:51:50 72° E 18:54:33 10° SSE
Cosmos 1869 4.5 18:48:50 10° NNW 18:52:31 44° W 18:56:10 10° SSW
Atlas Centaur 2 3.1 18:50:10 10° SW 18:53:20 19° S 18:56:09 10° SE
ATLAS 2AS CENTAUR R/B 3.3 18:45:30 10° SW 18:53:26 81° NW 19:01:15 10° NNE
Cosmos 1953 Rocket 4.2 18:48:59 10° SSW 18:53:26 63° W 18:57:54 10° N
Cosmos 1697 Rocket 2.8 18:52:32 10° NNW 18:58:15 90° WSW 19:03:54 10° SSE
Helios 1A Rocket 3.0 18:54:14 10° SSE 18:58:16 85° W 19:02:21 10° NNW
Cosmos 1076 Rocket 4.2 18:55:43 10° SSE 18:59:39 36° E 19:03:39 10° NNE
Cosmos 1437 Rocket 3.9 18:56:39 10° NNW 19:00:22 45° W 19:04:07 10° SSW
ATLAS 3B R/B 3.4 18:55:43 10° NNW 19:02:33 47° NE 19:09:27 11° ESE
Cosmos 2279 Rocket 4.0 18:57:11 10° N 19:03:24 82° E 19:09:36 10° S
BREEZE M DEB (TANK) 3.8 19:01:21 10° S 19:03:39 22° ESE 19:09:33 10° ENE
Cosmos 773 Rocket 4.0 18:59:13 10° SSW 19:04:26 88° ESE 19:09:38 10° NNE
Cosmos 1833 Rocket 3.8 18:59:18 10° SW 19:04:46 50° WNW 19:10:16 10° NNE
OBJECT-B 2.0 19:03:45 10° S 19:06:48 42° W 19:09:53 10° NNW
SAR-Lupe-1 4.3 19:03:27 10° N 19:07:02 75° WNW 19:10:35 10° SSW
SAR-Lupe-4 3.6 19:04:36 10° NNE 19:08:12 84° WNW 19:11:47 10° SSW
Cosmos 2082 Rocket 2.2 19:05:39 10° SSW 19:11:16 90° NW 19:16:58 10° NNE
SJ-6B 3.5 19:07:47 10° S 19:11:24 51° W 19:15:03 10° NNW
Resurs 1-3 3.6 19:12:22 10° SSE 19:16:46 89° ENE 19:21:10 10° NNW
Cosmos 1842 Rocket 3.6 19:12:32 10° N 19:17:03 82° E 19:21:31 10° S
Cosmos 2278 4.0 19:12:21 10° NNW 19:17:54 55° ENE 19:22:42 14° SE
Cosmos 1633 2.4 19:18:08 10° S 19:21:43 71° E 19:25:19 10° NNE
Cosmos 2360 Rocket 4.4 19:22:18 10° NNE 19:24:13 12° NE 19:26:09 10° ENE
Cosmos 158 Rocket 4.2 19:20:22 10° S 19:25:14 47° ESE 19:30:16 10° NNE
Nadezhda 4 Rocket 3.9 19:24:00 10° S 19:30:07 73° E 19:36:20 10° N
Cosmos 1606 2.7 19:28:39 10° N 19:32:27 84° W 19:36:00 11° S
Landsat 7 3.8 19:32:01 14° SSE 19:36:05 72° ENE 19:40:50 10° N
GP-B 4.2 19:33:20 10° NNE 19:37:05 26° E 19:38:47 21° ESE
Spot 2 Rocket 4.5 19:34:37 18° ESE 19:37:36 32° ENE 19:42:06 10° N
SPOT 3 Rocket 3.6 19:33:28 15° SSE 19:37:45 66° ENE 19:42:57 10° N
IGS 5A 3.4 19:35:49 14° SSE 19:39:21 90° NE 19:43:31 10° NNW
Cosmos 1680 Rocket 4.4 19:37:14 18° SE 19:40:03 29° E 19:44:31 10° NE
ISS -2.7 19:37:54 10° NW 19:41:06 38° NNE 19:42:58 20° E
MetOp-B 4.2 19:40:08 18° SSE 19:44:10 65° ENE 19:49:30 10° N
Cosmos 1980 Rocket 2.4 19:40:55 10° NNW 19:46:32 71° WSW 19:51:04 16° SSE
Cosmos 2369 4.4 19:41:21 10° NNW 19:46:48 51° WSW 19:52:02 11° S
CZ-2C R/B 3.7 19:44:16 10° NNE 19:48:43 56° E 19:52:04 17° S
RESURS DK-1 4.4 19:46:13 10° WSW 19:49:55 31° WNW 19:53:39 10° N
USA 245 4.1 19:47:53 22° SE 19:51:01 53° ENE 19:55:17 10° N
Cosmos 2221 3.9 19:47:20 10° NNW 19:51:18 37° W 19:55:17 10° SSW
ERBS 4.2 19:50:05 10° WNW 19:52:37 21° SW 19:54:07 16° SSW
Hubble Space Telescope 3.1 19:53:16 10° SSW 19:53:52 10° SSW 19:53:56 10° SSW
BREEZE-M DEB (TANK) 3.5 19:51:02 10° WSW 19:54:25 72° NNW 20:06:01 10° ENE
Meteor 2-15 4.4 19:50:15 10° N 19:56:21 81° E 20:00:51 19° SSE
Cosmos 2322 Rocket 3.3 19:52:15 10° N 19:57:14 31° ENE 19:59:58 21° ESE
Cosmos 304 Rocket 3.8 19:57:00 10° NNW 20:01:46 62° ENE 20:03:55 31° SE
BREEZE-M DEB (TANK) 4.0 19:58:21 10° NW 20:01:57 72° NNE 20:09:24 19° ESE
Resurs 01 Rocket 2.3 19:58:24 14° S 20:02:00 52° W 20:06:22 10° NNW
Cosmos 1933 3.3 19:58:54 10° N 20:02:56 70° E 20:04:32 35° SSE
Cosmos 2151 3.2 20:00:23 11° SSW 20:04:28 71° W 20:08:44 10° N
Cosmos 2098 Rocket 4.2 20:03:14 10° SW 20:05:58 30° WNW 20:09:04 10° NNW
ERS-2 4.3 20:03:36 10° N 20:06:42 27° WNW 20:09:47 10° SW
Meteor 2-3 Rocket 3.7 20:04:03 11° S 20:09:32 88° E 20:15:17 10° N
CARTOSAT-1 3.6 20:09:30 37° SE 20:11:01 62° ENE 20:15:17 10° N
Gbstr 26 Del rocket 3.7 20:07:40 10° NW 20:11:12 38° NNE 20:12:56 25° ENE
JB-3 4.3 20:07:27 10° NNE 20:11:36 89° ESE 20:13:56 25° SSW
Cosmos 2084 3.8 20:12:29 39° ESE 20:12:29 39° ESE 20:16:00 10° NE
Meteor 2-15 Rocket 4.4 20:08:23 10° N 20:14:30 88° E 20:18:11 25° S
Cosmos 2219 Rocket 4.4 20:16:00 10° NNE 20:18:15 12° NE 20:20:30 10° ENE
Cosmos 1862 4.4 20:21:26 29° ENE 20:21:26 29° ENE 20:24:29 10° NNE
COSMOS 2455 4.3 20:26:05 19° E 20:26:05 19° E 20:28:59 10° ENE
SL-16 R/B 2.2 20:20:17 10° NNW 20:25:57 68° ENE 20:28:03 39° SE
ARIANE 5 R/B 2.6 20:26:51 47° SSE 20:28:06 78° ENE 20:32:34 10° N
Cosmos 1782 2.7 20:25:22 10° N 20:29:24 83° E 20:30:03 61° SSE
Cosmos 371 Rocket 4.5 20:25:53 10° NW 20:30:16 36° WSW 20:32:51 21° SSW
Cosmos 1809 Rocket 4.4 20:30:11 31° S 20:33:13 72° E 20:39:20 10° NNE
SPOT 1/Viking Rocket 4.2 20:31:18 23° SSW 20:34:17 49° W 20:39:21 10° NNW
Meteor 2-6 Rocket 4.5 20:30:15 10° N 20:35:29 48° ENE 20:36:39 41° ESE
Cosmos 1271 Rocket 3.2 20:32:02 10° NNW 20:35:58 58° W 20:36:56 44° SSW
USA 276 3.0 20:35:46 10° NW 20:38:32 45° N 20:38:32 45° N
Cosmos 1766 Rocket 3.5 20:37:42 50° S 20:38:50 88° W 20:43:15 10° N
BREEZE-M DEB (TANK) 3.0 20:36:09 10° WNW 20:39:45 84° SSW 20:43:14 34° SE
Atlas Centaur 2 3.8 20:39:01 10° SW 20:39:03 10° SW 20:39:03 10° SW
Cosmos 1151 Rocket 2.9 20:38:39 10° N 20:43:02 89° WSW 20:43:40 65° S
Cosmos 1328 Rocket 3.4 20:42:50 10° N 20:47:17 76° E 20:47:39 70° SE
Terra 1.7 20:47:56 60° SE 20:48:39 72° ENE 20:53:24 10° N
SPOT 5 2.6 20:50:49 62° SSW 20:51:23 74° WSW 20:55:45 10° NNW
ATLAS 3B R/B 3.7 20:46:36 10° NW 20:53:12 40° WSW 20:56:42 26° SSW
USA 267 3.2 20:48:20 10° NE 20:54:47 58° SE 20:59:02 22° SSW
Meteor 2-21 Rocket 4.4 20:56:51 48° SSE 20:58:35 72° E 21:04:45 10° NNE
NOSS 2-1 (C) 4.2 21:00:50 35° N 21:00:50 35° N 21:02:58 10° NNE
Meteor 1-27 Rocket 4.4 20:55:57 10° N 21:01:11 38° ENE 21:01:49 37° E
Cosmos 2056 Rocket 3.4 20:56:05 10° NNW 21:01:27 71° ENE 21:02:09 62° ESE
ERS-1 Rocket 3.2 21:00:35 47° SSW 21:01:45 61° W 21:06:44 10° NNW
SL-27 R/B 3.6 21:06:23 41° N 21:06:23 41° N 21:08:51 10° NNE
NOSS 2-1 (D) 4.3 21:08:18 36° N 21:08:18 36° N 21:10:38 10° NNE
Cosmos 2360 Rocket 2.2 21:03:42 10° NNW 21:09:20 68° ENE 21:10:08 59° ESE
Cosmos 1833 4.1 21:14:09 56° SSW 21:15:27 87° ESE 21:21:16 10° NNE
ISS -1.2 21:14:56 10° WNW 21:15:56 16° W 21:15:56 16° W
Cosmos 2333 Rocket 2.9 21:14:33 10° N 21:19:52 40° ENE 21:20:38 38° E
Cosmos 1500 Rocket 4.0 21:22:34 54° NE 21:22:34 54° NE 21:26:07 10° NNE
Meteor 1-10 Rocket 4.0 21:16:42 10° N 21:22:18 88° WSW 21:22:51 73° S
Cosmos 1371 Rocket 4.1 21:17:34 10° NNW 21:22:54 66° WSW 21:23:22 63° SW
Cosmos 972 Rocket 4.4 21:23:45 50° ENE 21:23:45 50° ENE 21:28:03 10° NNE
Cosmos 1812 3.9 21:19:54 10° NNW 21:23:03 39° WNW 21:23:03 39° WNW
USA 234 4.4 21:22:43 16° E 21:27:20 37° NNE 21:33:12 10° NW
Cosmos 2322 4.2 21:24:43 10° NNW 21:30:14 46° ENE 21:30:48 45° ENE
Cosmos 292 Rocket 3.9 21:29:21 10° NNW 21:33:40 72° N 21:33:40 72° N
Cosmos 2237 Rocket 4.3 21:36:40 10° N 21:40:11 16° NE 21:42:15 14° ENE
Cosmos 2322 Rocket 3.0 21:36:10 10° NW 21:41:19 38° WSW 21:41:46 37° WSW
Cosmos 1743 Rocket 4.1 21:42:22 58° NNW 21:42:22 58° NNW 21:46:05 10° N
Cosmos 2285 Rocket 4.2 21:40:54 10° NNW 21:47:06 57° ENE 21:47:42 55° E
IRIDIUM 106 4.3 21:43:26 10° N 21:48:18 77° NNE 21:48:18 77° NNE
Sich 1 4.3 21:51:49 36° NNE 21:51:49 36° NNE 21:54:33 10° NNE
Cosmos 2315 Rocket 3.8 21:45:26 10° N 21:51:47 84° E 21:52:17 77° SSE
Cosmos 2266 Rocket 4.3 21:53:29 48° WSW 21:54:45 57° W 22:00:52 10° N
Cosmos 1048 Rocket 4.3 21:59:26 58° NNE 21:59:26 58° NNE 22:03:35 10° NNE
Cosmos 489 Rocket 4.4 21:59:04 72° E 21:59:04 72° E 22:05:19 10° NNE
Cosmos 2219 Rocket 2.2 21:57:38 10° NNW 22:02:58 71° NE 22:02:58 71° NE
BREEZE-M DEB (TANK) 4.3 21:50:33 10° WSW 22:06:19 85° SSE 22:10:50 10° ENE
Cosmos 2228 Rocket 4.1 22:02:54 10° NNW 22:06:05 45° NNW 22:06:05 45° NNW
SL-16 R/B 4.2 22:06:00 10° WNW 22:09:24 16° W 22:09:55 16° WSW
COSMOS 2455 3.1 22:09:10 56° WSW 22:10:07 64° WNW 22:16:07 10° NNE
Cosmos 2333 4.4 22:07:13 10° NNW 22:12:13 62° WNW 22:12:13 62° WNW
NOSS 3-1 (C) 4.0 22:05:04 10° NW 22:12:50 85° WSW 22:14:30 63° SSE
COSMOS 2428 2.8 22:12:16 10° NNW 22:17:35 73° NNE 22:17:35 73° NNE
Terra 4.3 22:26:50 11° W 22:26:53 11° W 22:28:28 10° WNW
USA 229 DEB 3.9 22:19:33 10° NNW 22:26:58 77° NE 22:28:16 63° ESE
USA 229 3.9 22:19:39 10° NNW 22:27:04 77° NE 22:28:23 63° ESE
ATLAS 5 CENTAUR R/B 2.7 22:24:37 10° NNW 22:30:13 58° NE 22:30:39 57° ENE
ALOS 2 3.8 22:33:57 40° NNW 22:33:57 40° NNW 22:36:48 10° NNW
Cosmos 1452 Rocket 4.3 22:28:48 10° NNW 22:32:49 44° WNW 22:32:49 44° WNW
USA 267 4.1 22:31:29 10° NE 22:37:40 47° NNW 22:43:50 10° WSW
Cosmos 2219 4.4 22:40:38 33° ENE 22:40:38 33° ENE 22:44:26 10° NE
SL-08 ROCKET BODY 4.4 22:44:13 76° NW 22:44:13 76° NW 22:50:09 10° N
Nadezhda 1 Rocket 4.2 22:38:05 10° N 22:44:26 61° E 22:44:26 61° E
NOSS 3-1 (A) 4.0 22:39:45 10° NW 22:47:32 84° WSW 22:48:49 68° SSE
Cosmos 2360 Rocket 4.2 22:49:20 10° WNW 22:51:53 16° W 22:51:53 16° W
Cosmos 1980 4.0 22:56:13 10° NNW 23:01:19 64° NNE 23:01:19 64° NNE
Cosmos 2333 Rocket 3.7 22:59:09 10° NW 23:02:38 26° W 23:02:38 26° W
Meteor 2-17 Rocket 4.5 23:05:18 71° NE 23:05:18 71° NE 23:10:52 10° NNE
CZ-2D R/B 4.5 23:07:08 10° ENE 23:09:04 12° E 23:09:04 12° E
USA 234 3.1 23:10:02 81° WSW 23:10:02 81° WSW 23:16:32 10° NW
Cosmos 2297 Rocket 2.4 23:17:11 68° N 23:17:11 68° N 23:22:07 10° NNE
NOSS 0 Rocket 4.2 23:10:39 10° NNW 23:16:01 60° WNW 23:16:01 60° WNW
Lacrosse 5 2.7 23:21:59 48° NNE 23:21:59 48° NNE 23:25:44 10° NE
Cosmos 2237 Rocket 2.5 23:19:17 10° NNW 23:24:02 63° NW 23:24:02 63° NW
Cosmos 2227 Rocket 2.4 23:28:53 68° NNE 23:28:53 68° NNE 23:33:48 10° NNE
Cosmos 2181 Rocket 4.4 23:24:13 10° N 23:30:22 50° ENE 23:30:50 49° E
Cosmos 909 Rocket 4.0 23:31:44 85° SSE 23:31:53 86° ESE 23:39:21 10° NNE
Meteor 1-11 Rocket 3.8 23:41:19 69° NNE 23:41:19 69° NNE 23:46:11 10° N
Timation 1 Rocket 4.3 23:41:04 78° NNE 23:41:04 78° NNE 23:46:40 10° NNE
Cosmos 2263 Rocket 3.9 23:46:36 22° E 23:46:36 22° E 23:50:33 10° NE
Cosmos 2219 Rocket 4.4 23:43:31 10° WNW 23:44:40 13° WNW 23:44:40 13° WNW
SL-16 R/B 2.6 23:46:46 10° NNW 23:52:21 57° ENE 23:52:43 56° E
Cosmos 1992 Rocket 4.3 23:47:38 10° NNW 23:52:06 63° N 23:52:06 63° N
